Regional Weather Roundup
Issued by NWS

Home | Current Version | Previous Version | Graphics & Text | Print | Product List | Glossary On
Versions: 1 2 3 4 5 6 7 8 9 10 11 12 13 14 15 16 17 18 19 20 21 22 23 24 25 26 27 28 29 30 31 32 33 34 35 36 37 38 39 40 41 42 43 44 45 46 47 48 49 50
000
ASUS43 KMKX 060121
RWRWI

WISCONSIN REGIONAL WEATHER ROUNDUP
NATIONAL WEATHER SERVICE MILWAUKEE/SULLIVAN WI
800 PM CDT THU MAY 05 2016

NOTE: "FAIR" INDICATES FEW OR NO CLOUDS BELOW 12,000 FEET WITH NO
SIGNIFICANT WEATHER AND/OR OBSTRUCTIONS TO VISIBILITY.

WIZ001-002-006>008-014>016-023>028-060200-
NORTHWEST WISCONSIN

CITY           SKY/WX    TMP DP  RH WIND       PRES   REMARKS
SUPERIOR ARPT  CLEAR     76  42  29 SW9       29.77F
ASHLAND        CLEAR     69  40  34 S9        29.83F
HAYWARD        CLEAR     65  39  38 S10       29.87F
SIREN          CLEAR     72  36  27 S5        29.86S
CUMBERLAND     CLEAR     63  37  39 S7        29.89F
RICE LAKE      CLEAR     65  39  38 S7        29.90F
CHETEK         CLEAR     64  42  45 SW5       29.89F
LADYSMITH      CLEAR     62  41  46 S6        29.92F
EAU CLAIRE     CLEAR     65  39  38 S6        29.91F
MENOMONIE      CLEAR     66  39  36 S5        29.91F
NEW RICHMOND   CLEAR     69  37  31 S5        29.89F
OSCEOLA        CLEAR     72  37  28 S3        29.90F
$$

WIZ003>005-009-010-017-018-060200-
NORTH CENTRAL WISCONSIN

CITY           SKY/WX    TMP DP  RH WIND       PRES   REMARKS
MANITOWISH WTR PTCLDY    62  38  40 SW6       29.89S
ARBOR VITAE    PTCLDY    62  40  44 SW5       29.91R
WOODRUFF       PTCLDY    62  40  44 SW5       29.91R
RHINELANDER    CLEAR     62  37  39 SW5       29.92S
EAGLE RIVER    CLEAR     60  35  38 W7        29.89F
LAND O LAKES   CLEAR     64  35  34 CALM      29.90S
PHILLIPS       PTCLDY    62  39  42 SW7       29.90S
TOMAHAWK       LGT RAIN  61  39  43 SW5       29.92F
MEDFORD        MOCLDY    60  42  52 CALM      29.94R
MERRILL        CLOUDY    60  41  49 W5        29.93S
$$

WIZ029-030-035-036-043>047-060200-
CENTRAL WISCONSIN

CITY           SKY/WX    TMP DP  RH WIND       PRES   REMARKS
WAUSAU         PTCLDY    63  38  39 W6        29.91F
MOSINEE        PTCLDY    61  37  41 SW3       29.94F
MARSHFIELD     PTCLDY    63  39  41 W7        29.93F
STEVENS POINT  CLEAR     61  35  38 CALM      29.94S
WAUPACA        CLEAR     64  28  25 W3        29.93S
WAUTOMA        CLEAR     60  37  42 CALM      29.94S
WISC RAPIDS    CLEAR     63  33  32 W3        29.94F
CAMP DOUGLAS   MOCLDY    59  41  51 SW5       29.94S
$$

WIZ011>013-019>022-031-037>040-048>050-060200-
NORTHEAST WISCONSIN

CITY           SKY/WX    TMP DP  RH WIND       PRES   REMARKS
ANTIGO         CLEAR     56  39  53 CALM      29.93S
SHAWANO        CLEAR     66  32  28 W5        29.92R
OCONTO         CLEAR     58  40  52 S6        29.90S
STURGEON BAY   CLEAR     48  36  61 S9        29.95F
GREEN BAY      CLEAR     60  41  49 S8        29.92S
MANITOWOC      CLEAR     48  38  68 S8        29.95F
APPLETON       PTCLDY    57  36  44 S7        29.92S
CLINTONVILLE   CLEAR     63  30  29 W6        29.92R
OSHKOSH        CLEAR     52  40  63 S5        29.93F
$$

WIZ032>034-041-042-053>061-060200-
SOUTHWEST WISCONSIN

CITY           SKY/WX    TMP DP  RH WIND       PRES   REMARKS
LA CROSSE      PTCLDY    67  39  35 SE3       29.94S
SPARTA         PTCLDY    64  38  38 CALM      29.95F
VIROQUA        PTCLDY    62  38  40 W5        29.96S
BOSCOBEL       CLEAR     64  36  35 CALM      29.96S
PRAIRIE DU CHI CLEAR     65  34  31 CALM      29.95F
PLATTEVILLE    CLEAR     62  34  35 W3        29.97F
$$

WIZ056-057-062-063-064-067-068-060200-
SOUTH CENTRAL WISCONSIN

CITY           SKY/WX    TMP DP  RH WIND       PRES   REMARKS
REEDSBURG      CLEAR     62  35  36 CALM      29.95S
BARABOO/DELLS  CLEAR     62  30  30 W3        29.95S
LONE ROCK      CLEAR     62  38  40 NW3       29.96S
MINERAL POINT  CLEAR     61  32  33 W3        29.97S
MADISON        MOCLDY    59  35  40 CALM      29.95F
MIDDLETON      CLEAR     59  37  43 CALM      29.96S
WATERTOWN      CLEAR     60  37  41 CALM      29.94F
MONROE         CLEAR     61  36  39 W6        29.96F
JANESVILLE     CLEAR     61  36  39 CALM      29.96S
$$

WIZ051-052-058>065-066-070>072-060200-
SOUTHEAST WISCONSIN

CITY           SKY/WX    TMP DP  RH WIND       PRES   REMARKS
MILWAUKEE      MOCLDY    50  36  58 CALM      29.97F
WAUKESHA       CLEAR     52  39  62 E6        29.97S
MILWAUKEE/TIMM NOT AVBL
RACINE         CLEAR     49  35  58 CALM      29.99R
BURLINGTON     CLEAR     53  40  62 E3        29.97R
KENOSHA        CLEAR     46  37  71 E5        29.97S
FOND DU LAC    CLEAR     58  39  49 CALM      29.93F
SHEBOYGAN      CLEAR     49  39  68 S5        29.95F
WEST BEND      CLEAR     52  37  58 SE3       29.96S
JUNEAU         CLEAR     59  37  43 CALM      29.95F
$$

LSZ147-162-060200-
LAKE SUPERIOR

STATION/POSITION TIME  TEMP    WIND        PRES    WAVE
                       AIR SEA DIR/SP/G            HT/PER
                 (UTC) (F)     (DEG/KT/KT) (MB)    (FT/S)
W MID LAKE BUOY  0050   43 37  150/  8/ 10 1009.9S   0
DEVILS ISLAND    0100   69     180/  7/ 10 1008.2F
SAXON HARBOR     0000   73     220/  8/ 13 1010.2S
$$

LMZ867-665-643>646-060200-
LAKE MICHIGAN

STATION/POSITION TIME  TEMP    WIND        PRES    WAVE
                       AIR SEA DIR/SP/G            HT/PER
                 (UTC) (F)     (DEG/KT/KT) (MB)    (FT/S)
CHAMBERS ISLAND  0040   55     140/  4/  6 1013.2S
N MID LAKE BUOY  0050   40 39  200/  8/  8 1013.6F   0
NORTHPORT PIER   0000   52     170/  4/  9 1013.5S
ALGOMA LAKESHORE 0015          210/ 11/ 12   N/A
KEWAUNEE LAKESHO 0000          180/ 10/ 11 1013.4F
SHEBOYGAN LAKESH 0100   46     180/  8/  9 1014.9F
PORT WASHINGTON  0000   48     170/  3/  3 1015.6S
S MID LAKE BUOY  0050   42 40  320/  2/  2 1014.7S   2/ 5
KENOSHA   LAKESH 0100   48      CALM  /  1 1014.9S
$$

TC  - TEMPERATURE IN CELSIUS
VSB - VISIBILITY IN STATUTE MILES
WCI - WIND CHILL INDEX
HX  - HEAT INDEX




USA.gov is the U.S. government's official web portal to all federal, state and local government web resources and services.